Regional Weather Roundup
Issued by NWS Jackson, KY

Home | Current Version | Previous Version | Graphics & Text | Print | Product List | Glossary On
Versions: 1 2 3 4 5 6 7 8 9 10 11 12 13 14 15 16 17 18 19 20 21 22 23 24 25 26 27 28 29 30 31 32 33 34 35 36 37 38 39 40 41 42 43 44 45 46 47 48 49 50
000
ASUS43 KJKL 240310
RWRJKL

EAST KENTUCKY HOURLY WEATHER ROUNDUP
NATIONAL WEATHER SERVICE JACKSON KY
1100 PM EDT SUN JUL 23 2017

NOTE: "FAIR" INDICATES FEW OR NO CLOUDS BELOW 12,000 FEET WITH
NO SIGNIFICANT WEATHER AND/OR OBSTRUCTIONS TO VISIBILITY.

* THESE REPORTS ARE NOT UNDER NWS QUALITY CONTROL AND MAY NOT
  REPORT WEATHER SUCH AS PRECIPITATION AND FOG.

KYZ079-080-083-085-087-088-110-112-115-119-120-240400
...EASTERN KENTUCKY...

CITY           SKY/WX    TMP DP  RH WIND       PRES   REMARKS
JACKSON        CLOUDY    77  70  79 W3        29.92R
LONDON         CLOUDY    77  69  76 S8        29.93R
SOMERSET*      CLEAR     75  68  78 CALM      29.93R
MONTICELLO*    CLOUDY    72  70  93 N8        29.95R
WILLIAMSBURG*  CLOUDY    70  70 100 CALM      29.94R
MIDDLESBORO*   CLOUDY    71  70  97 S3        29.96R
PIKE CO APT*   MOCLDY    76  76 100 CALM      29.92R
BIG SANDY APT* CLOUDY    76  72  89 W3        29.90R
MOREHEAD APT*  CLEAR     77  68  73 SW6       29.89R
ASHLAND*         N/A    N/A N/A N/A MISG        N/A
$$

KYZ035-036-041-042-044-050-067-078-099-240400
...CENTRAL KENTUCKY...

CITY           SKY/WX    TMP DP  RH WIND       PRES   REMARKS
MT STERLING*   CLEAR     73  70  88 NW5       29.90R
FLEMING/MASON* CLEAR     75  69  82 W9        29.87R
DANVILLE*      CLOUDY    77  68  73 W3        29.92R
LEXINGTON      CLEAR     75  70  84 NW3       29.89R
FRANKFORT      CLEAR     75  69  81 CALM      29.86R
LOUISVILLE     PTCLDY    80  73  79 SW5       29.85S
LEBANON*         N/A     75  72  88 CALM      29.90R
GLASGOW*       CLEAR     74  74  99 CALM      29.90R
BOWLING GREEN  CLEAR     78  72  81 E5        29.89R
$$

KYZ091>093-OHZ055-061-077-WVZ005-015-034-035-042-240400
...SOUTHERN OHIO/WEST VIRGINIA...

CITY           SKY/WX    TMP DP  RH WIND       PRES   REMARKS
COVINGTON      CLEAR     73  70  90 W7        29.85S
COLUMBUS       PTCLDY    70  70 100 CALM      29.82R
DAYTON         CLEAR     70  65  84 S6        29.82F
WILMINGTON     CLEAR     73  70  90 W3        29.84R
HUNTINGTON     CLEAR     74  71  91 CALM      29.85R
CHARLESTON     PTCLDY    73  70  90 CALM      29.86R
PINEVILLE*     CLOUDY    73  71  96 MISG      29.98R
BECKLEY        CLOUDY    73  64  73 CALM      29.95R
BLUEFIELD      CLOUDY    68  66  93 W6        29.98S
LOGAN CO APT*  MOCLDY    73  72  94 CALM      29.91R
$$

VAZ002-007-008-TNZ017-027-036-066-071-240400
...SOUTHWEST VIRGINIA/EAST TENNESSEE...

CITY           SKY/WX    TMP DP  RH WIND       PRES   REMARKS
WISE*          TSTM      70  70 100 S5        30.01R
JONESVILLE*    CLOUDY    72  70  94 CALM      29.99R
ABINGDON*      CLOUDY    71  69  96 SE8       29.99S
BRISTOL        CLOUDY    79  70  74 NW6       29.95R THUNDER
MORRISTOWN*    MOCLDY    75  66  73 N17G31    29.97R
SEVIERVILLE*   PTCLDY    81  70  69 W6        29.94R
KNOXVILLE      CLOUDY    80  72  76 N12G17    29.94R
OAK RIDGE      LGT RAIN  75  67  76 CALM      29.96R
CROSSVILLE     LGT RAIN  74  72  93 NW8       30.00R
NASHVILLE      CLOUDY    80  70  71 E14       29.91R THUNDER
$$

...KEY TO REMARKS...
VSB - VISIBILITY IN MILES
WCI - WIND CHILL INDEX
HX  - HEAT INDEX

$$



USA.gov is the U.S. government's official web portal to all federal, state and local government web resources and services.